BLF1050 UHWW-UHHH

Flight info

Callsign BLF1050
Flight time 1h 2m
Altitude 31000
Route DOLMA2F DOLMA B356 TD B355 ARDEL ARDEL6G
Aircraft B738/M-SDE2E3FGHIRWXY/LB1

Departure

Time 2026-05-06 19:10
Airport Vladivostok International Airport (UHWW)

Arrival

Time 2026-05-06 20:13
Airport Khabarovsk Novy Airport (UHHH)
Time Latitude Longitude Altitude Speed Heading
2026-05-06 18:41 43.39696 132.16420 32 ft 0 kts 148°
2026-05-06 19:01 43.39710 132.16408 32 ft 0 kts 149°
2026-05-06 19:01 43.39716 132.16403 32 ft 4 kts 150°
2026-05-06 19:01 43.39739 132.16387 32 ft 4 kts 155°
2026-05-06 19:02 43.39760 132.16375 32 ft 3 kts 167°
2026-05-06 19:02 43.39774 132.16373 32 ft 2 kts 190°
2026-05-06 19:02 43.39785 132.16378 32 ft 2 kts 219°
2026-05-06 19:02 43.39792 132.16390 32 ft 2 kts 237°
2026-05-06 19:03 43.39798 132.16403 32 ft 2 kts 242°
2026-05-06 19:03 43.39800 132.16408 32 ft 0 kts 243°
2026-05-06 19:05 43.39798 132.16404 32 ft 2 kts 243°
2026-05-06 19:05 43.39786 132.16373 32 ft 6 kts 239°
2026-05-06 19:05 43.39750 132.16283 32 ft 15 kts 247°
2026-05-06 19:05 43.39813 132.16164 32 ft 18 kts 330°
2026-05-06 19:06 43.39889 132.16078 32 ft 15 kts 278°
2026-05-06 19:06 43.39837 132.15922 30 ft 21 kts 240°
2026-05-06 19:06 43.39764 132.15742 30 ft 21 kts 241°
2026-05-06 19:06 43.39694 132.15566 30 ft 22 kts 242°
2026-05-06 19:07 43.39623 132.15390 30 ft 21 kts 241°
2026-05-06 19:07 43.39549 132.15209 30 ft 22 kts 241°
2026-05-06 19:07 43.39480 132.15036 30 ft 17 kts 241°
2026-05-06 19:07 43.39418 132.14882 32 ft 19 kts 241°
2026-05-06 19:08 43.39350 132.14714 32 ft 22 kts 240°
2026-05-06 19:08 43.39285 132.14555 31 ft 19 kts 241°
2026-05-06 19:08 43.39226 132.14407 31 ft 14 kts 241°
2026-05-06 19:08 43.39217 132.14279 32 ft 8 kts 313°
2026-05-06 19:09 43.39280 132.14222 33 ft 14 kts 329°
2026-05-06 19:09 43.39359 132.14173 33 ft 14 kts 10°
2026-05-06 19:09 43.39442 132.14340 33 ft 39 kts 60°
2026-05-06 19:09 43.39693 132.14959 32 ft 107 kts 62°
2026-05-06 19:10 43.40150 132.16097 34 ft 162 kts 60°
2026-05-06 19:10 43.40717 132.17522 571 ft 174 kts 61°
2026-05-06 19:10 43.41293 132.18970 1347 ft 174 kts 60°
2026-05-06 19:10 43.41906 132.20459 2020 ft 186 kts 60°
2026-05-06 19:11 43.42578 132.22122 2324 ft 212 kts 60°
2026-05-06 19:11 43.43324 132.23977 2719 ft 228 kts 60°
2026-05-06 19:11 43.44118 132.25947 3260 ft 240 kts 60°
2026-05-06 19:11 43.44937 132.27979 4052 ft 245 kts 60°
2026-05-06 19:12 43.45761 132.30025 4835 ft 249 kts 59°
2026-05-06 19:12 43.46612 132.32138 5578 ft 254 kts 59°
2026-05-06 19:12 43.47479 132.34291 6293 ft 260 kts 59°
2026-05-06 19:12 43.48411 132.36446 7018 ft 264 kts 50°
2026-05-06 19:13 43.49645 132.38357 7705 ft 269 kts 41°
2026-05-06 19:13 43.51139 132.39912 8406 ft 271 kts 28°
2026-05-06 19:13 43.52778 132.41212 9119 ft 274 kts 25°
2026-05-06 19:13 43.54474 132.42488 9781 ft 280 kts 25°
2026-05-06 19:14 43.56215 132.43802 10379 ft 289 kts 24°
2026-05-06 19:14 43.57998 132.45169 10967 ft 297 kts 25°
2026-05-06 19:14 43.59818 132.46581 11330 ft 315 kts 24°
2026-05-06 19:14 43.61823 132.48148 11498 ft 339 kts 25°
2026-05-06 19:15 43.63906 132.49791 11792 ft 356 kts 25°
2026-05-06 19:15 43.66081 132.51524 12321 ft 366 kts 25°
2026-05-06 19:15 43.68299 132.53300 12972 ft 371 kts 25°
2026-05-06 19:15 43.70545 132.55102 13661 ft 375 kts 25°
2026-05-06 19:16 43.72821 132.56927 14284 ft 380 kts 25°
2026-05-06 19:16 43.75126 132.58773 14873 ft 386 kts 25°
2026-05-06 19:16 43.77465 132.60650 15477 ft 391 kts 25°
2026-05-06 19:16 43.79839 132.62555 16054 ft 397 kts 25°
2026-05-06 19:17 43.82150 132.64737 16629 ft 407 kts 34°
2026-05-06 19:17 43.84287 132.67294 17212 ft 413 kts 37°
2026-05-06 19:17 43.86427 132.70009 17731 ft 420 kts 39°
2026-05-06 19:17 43.88585 132.72779 18251 ft 426 kts 38°
2026-05-06 19:18 43.90785 132.75579 18771 ft 430 kts 38°
2026-05-06 19:18 43.93012 132.78383 19302 ft 434 kts 37°
2026-05-06 19:18 43.95267 132.81196 19819 ft 438 kts 37°
2026-05-06 19:18 43.97525 132.83998 20325 ft 442 kts 37°
2026-05-06 19:19 43.99836 132.86862 20795 ft 445 kts 37°
2026-05-06 19:19 44.02168 132.89750 21151 ft 453 kts 37°
2026-05-06 19:19 44.04548 132.92699 21465 ft 460 kts 37°
2026-05-06 19:19 44.06941 132.95672 21992 ft 462 kts 38°
2026-05-06 19:20 44.09344 132.98663 22452 ft 466 kts 38°
2026-05-06 19:20 44.11749 133.01659 22812 ft 472 kts 38°
2026-05-06 19:20 44.14204 133.04722 23235 ft 476 kts 38°
2026-05-06 19:20 44.16679 133.07813 23658 ft 479 kts 38°
2026-05-06 19:21 44.19169 133.10926 24054 ft 483 kts 38°
2026-05-06 19:21 44.21743 133.13971 24410 ft 485 kts 34°
2026-05-06 19:21 44.24432 133.16829 24825 ft 486 kts 31°
2026-05-06 19:21 44.27175 133.19606 25248 ft 487 kts 30°
2026-05-06 19:22 44.29944 133.22372 25628 ft 490 kts 30°
2026-05-06 19:22 44.32723 133.25159 26027 ft 492 kts 30°
2026-05-06 19:22 44.35468 133.27942 26399 ft 495 kts 31°
2026-05-06 19:22 44.38254 133.30797 26805 ft 496 kts 31°
2026-05-06 19:23 44.41045 133.33676 27128 ft 499 kts 31°
2026-05-06 19:23 44.43842 133.36577 27480 ft 502 kts 31°
2026-05-06 19:23 44.46650 133.39497 27822 ft 504 kts 31°
2026-05-06 19:23 44.49470 133.42434 28224 ft 504 kts 31°
2026-05-06 19:24 44.52277 133.45362 28681 ft 502 kts 31°
2026-05-06 19:24 44.55078 133.48285 29085 ft 502 kts 31°
2026-05-06 19:24 44.57880 133.51211 29516 ft 500 kts 30°
2026-05-06 19:24 44.60668 133.54124 29912 ft 499 kts 30°
2026-05-06 19:25 44.63450 133.57034 30337 ft 498 kts 30°
2026-05-06 19:25 44.66191 133.59906 30758 ft 496 kts 30°
2026-05-06 19:25 44.68979 133.62826 30884 ft 501 kts 29°
2026-05-06 19:26 44.74644 133.68761 30882 ft 514 kts 30°
2026-05-06 19:26 44.80449 133.74873 30889 ft 526 kts 30°
2026-05-06 19:27 44.86337 133.81096 30887 ft 537 kts 30°
2026-05-06 19:27 44.92357 133.87474 30867 ft 541 kts 30°
2026-05-06 19:28 44.98476 133.93665 30863 ft 540 kts 27°
2026-05-06 19:28 45.04608 133.99688 30868 ft 540 kts 27°
2026-05-06 19:29 45.10778 134.05795 30872 ft 540 kts 27°
2026-05-06 19:29 45.16919 134.11940 30865 ft 539 kts 27°
2026-05-06 19:30 45.22991 134.18054 30857 ft 537 kts 27°
2026-05-06 19:30 45.29108 134.24222 30863 ft 538 kts 27°
2026-05-06 19:31 45.35186 134.30365 30865 ft 540 kts 27°
2026-05-06 19:31 45.44385 134.39689 30851 ft 542 kts 27°
2026-05-06 19:32 45.50529 134.45941 30856 ft 543 kts 27°
2026-05-06 19:32 45.56650 134.52189 30847 ft 544 kts 27°
2026-05-06 19:33 45.62797 134.58484 30845 ft 543 kts 27°
2026-05-06 19:33 45.68921 134.64765 30851 ft 540 kts 27°
2026-05-06 19:34 45.75002 134.71021 30848 ft 537 kts 27°
2026-05-06 19:34 45.81029 134.77237 30839 ft 536 kts 27°
2026-05-06 19:35 45.87173 134.83249 30833 ft 529 kts 18°
2026-05-06 19:35 45.90495 134.85415 30849 ft 518 kts
2026-05-06 19:35 45.93898 134.86946 30852 ft 506 kts
2026-05-06 19:36 45.97300 134.87787 30837 ft 488 kts 353°
2026-05-06 19:36 46.00668 134.88208 30841 ft 484 kts 352°
2026-05-06 19:36 46.07371 134.88983 30825 ft 483 kts 351°
2026-05-06 19:37 46.14046 134.89804 30837 ft 484 kts 351°
2026-05-06 19:37 46.19682 134.90543 30840 ft 485 kts 352°
2026-05-06 19:38 46.27506 134.91591 30825 ft 486 kts 352°
2026-05-06 19:38 46.34281 134.92496 30829 ft 489 kts 352°
2026-05-06 19:39 46.41020 134.93408 30822 ft 489 kts 352°
2026-05-06 19:39 46.47815 134.94323 30822 ft 490 kts 352°
2026-05-06 19:40 46.54624 134.95247 30814 ft 491 kts 352°
2026-05-06 19:40 46.61379 134.96159 30800 ft 489 kts 351°
2026-05-06 19:41 46.68156 134.97076 30804 ft 489 kts 351°
2026-05-06 19:41 46.74943 134.97999 30816 ft 489 kts 351°
2026-05-06 19:42 46.81733 134.99105 30792 ft 504 kts
2026-05-06 19:42 46.85106 135.01017 30828 ft 530 kts 16°
2026-05-06 19:42 46.88389 135.03533 30810 ft 533 kts 17°
2026-05-06 19:43 46.94883 135.08673 30801 ft 534 kts 18°
2026-05-06 19:43 47.01450 135.13803 30792 ft 534 kts 17°
2026-05-06 19:44 47.08054 135.18856 30803 ft 536 kts 16°
2026-05-06 19:44 47.14645 135.23881 30797 ft 536 kts 17°
2026-05-06 19:45 47.21258 135.28956 30649 ft 537 kts 17°
2026-05-06 19:45 47.24578 135.31501 30313 ft 538 kts 16°
2026-05-06 19:45 47.27904 135.34057 29908 ft 539 kts 17°
2026-05-06 19:46 47.31232 135.36622 29485 ft 540 kts 17°
2026-05-06 19:46 47.34568 135.39200 29074 ft 540 kts 17°
2026-05-06 19:46 47.37894 135.41776 28628 ft 539 kts 17°
2026-05-06 19:46 47.41177 135.44323 28183 ft 540 kts 17°
2026-05-06 19:47 47.44503 135.46901 27755 ft 540 kts 17°
2026-05-06 19:47 47.47843 135.49492 27292 ft 541 kts 18°
2026-05-06 19:47 47.51178 135.52081 26851 ft 541 kts 18°
2026-05-06 19:47 47.54510 135.54675 26400 ft 540 kts 18°
2026-05-06 19:48 47.57832 135.57267 25951 ft 536 kts 18°
2026-05-06 19:48 47.61132 135.59842 25508 ft 537 kts 18°
2026-05-06 19:48 47.64401 135.62399 25069 ft 537 kts 19°
2026-05-06 19:48 47.67696 135.64986 24615 ft 532 kts 19°
2026-05-06 19:49 47.70936 135.67537 24163 ft 524 kts 19°
2026-05-06 19:49 47.74136 135.70051 23722 ft 516 kts 19°
2026-05-06 19:49 47.77293 135.72530 23298 ft 508 kts 19°
2026-05-06 19:49 47.80403 135.74993 22849 ft 502 kts 20°
2026-05-06 19:50 47.83454 135.77471 22400 ft 496 kts 21°
2026-05-06 19:50 47.86454 135.79940 21985 ft 489 kts 21°
2026-05-06 19:50 47.89414 135.82383 21569 ft 482 kts 21°
2026-05-06 19:50 47.92295 135.84770 21159 ft 475 kts 21°
2026-05-06 19:51 47.95162 135.87136 20757 ft 468 kts 21°
2026-05-06 19:51 47.97996 135.89468 20360 ft 461 kts 21°
2026-05-06 19:51 48.00790 135.91765 19965 ft 454 kts 22°
2026-05-06 19:51 48.03536 135.94027 19573 ft 447 kts 22°
2026-05-06 19:52 48.05333 135.95510 19316 ft 442 kts 22°
2026-05-06 19:52 48.07990 135.97789 18941 ft 438 kts 28°
2026-05-06 19:52 48.11111 136.01582 18581 ft 432 kts 37°
2026-05-06 19:52 48.12619 136.03615 18320 ft 430 kts 38°
2026-05-06 19:53 48.14802 136.06544 17964 ft 424 kts 37°
2026-05-06 19:53 48.17017 136.09429 17596 ft 419 kts 36°
2026-05-06 19:53 48.19220 136.12247 17225 ft 415 kts 35°
2026-05-06 19:53 48.21609 136.14525 16837 ft 400 kts 17°
2026-05-06 19:54 48.24230 136.15601 16501 ft 383 kts 360°
2026-05-06 19:54 48.26861 136.15801 16158 ft 375 kts 354°
2026-05-06 19:54 48.29459 136.15856 15787 ft 372 kts 354°
2026-05-06 19:54 48.32040 136.15891 15420 ft 370 kts 354°
2026-05-06 19:55 48.34617 136.15939 15055 ft 369 kts 355°
2026-05-06 19:55 48.37185 136.16006 14686 ft 367 kts 355°
2026-05-06 19:55 48.39707 136.16084 14323 ft 366 kts 355°
2026-05-06 19:55 48.42250 136.16171 13958 ft 364 kts 355°
2026-05-06 19:56 48.44792 136.16261 13591 ft 362 kts 356°
2026-05-06 19:56 48.47307 136.16355 13233 ft 360 kts 356°
2026-05-06 19:56 48.49777 136.16444 12877 ft 358 kts 356°
2026-05-06 19:56 48.52251 136.16535 12507 ft 350 kts 356°
2026-05-06 19:57 48.54644 136.16597 12152 ft 337 kts 353°
2026-05-06 19:57 48.56926 136.16218 11808 ft 322 kts 345°
2026-05-06 19:57 48.59094 136.15593 11480 ft 312 kts 343°
2026-05-06 19:57 48.61192 136.14943 11141 ft 304 kts 343°
2026-05-06 19:58 48.63245 136.14324 10817 ft 296 kts 344°
2026-05-06 19:58 48.65250 136.13740 10510 ft 289 kts 345°
2026-05-06 19:58 48.67179 136.13196 10216 ft 282 kts 345°
2026-05-06 19:58 48.69093 136.12669 9927 ft 276 kts 345°
2026-05-06 19:59 48.70951 136.12160 9804 ft 266 kts 346°
2026-05-06 19:59 48.72774 136.11661 9538 ft 267 kts 346°
2026-05-06 19:59 48.74603 136.11159 9271 ft 267 kts 345°
2026-05-06 19:59 48.76298 136.10145 8972 ft 260 kts 321°
2026-05-06 20:00 48.77510 136.08154 8704 ft 257 kts 300°
2026-05-06 20:00 48.78172 136.05668 8422 ft 253 kts 287°
2026-05-06 20:00 48.78670 136.03160 8137 ft 250 kts 286°
2026-05-06 20:00 48.79158 136.00624 7865 ft 250 kts 286°
2026-05-06 20:01 48.79647 135.98095 7587 ft 251 kts 286°
2026-05-06 20:01 48.80145 135.95545 7309 ft 254 kts 287°
2026-05-06 20:01 48.80649 135.92989 7168 ft 250 kts 287°
2026-05-06 20:01 48.81144 135.90473 7039 ft 246 kts 287°
2026-05-06 20:02 48.81625 135.88029 6915 ft 235 kts 287°
2026-05-06 20:02 48.82082 135.85706 6798 ft 223 kts 286°
2026-05-06 20:02 48.82214 135.83426 6701 ft 217 kts 262°
2026-05-06 20:02 48.81874 135.81197 6631 ft 220 kts 256°
2026-05-06 20:03 48.81448 135.78969 6539 ft 225 kts 255°
2026-05-06 20:03 48.80999 135.76670 6433 ft 227 kts 255°
2026-05-06 20:03 48.80554 135.74380 6327 ft 225 kts 255°
2026-05-06 20:03 48.80115 135.72113 6212 ft 223 kts 255°
2026-05-06 20:04 48.79680 135.69853 6102 ft 223 kts 255°
2026-05-06 20:04 48.79253 135.67629 6107 ft 215 kts 255°
2026-05-06 20:04 48.78845 135.65501 6095 ft 205 kts 255°
2026-05-06 20:04 48.78452 135.63442 6005 ft 202 kts 256°
2026-05-06 20:05 48.78066 135.61416 5930 ft 202 kts 256°
2026-05-06 20:05 48.77671 135.59347 5853 ft 205 kts 255°
2026-05-06 20:05 48.77271 135.57251 5760 ft 208 kts 255°
2026-05-06 20:05 48.76866 135.55141 5657 ft 208 kts 255°
2026-05-06 20:06 48.76464 135.53045 5554 ft 205 kts 255°
2026-05-06 20:06 48.76004 135.51041 5371 ft 207 kts 239°
2026-05-06 20:06 48.75004 135.49456 5147 ft 210 kts 224°
2026-05-06 20:06 48.73926 135.47924 4812 ft 213 kts 226°
2026-05-06 20:07 48.72871 135.46393 4488 ft 212 kts 225°
2026-05-06 20:07 48.71801 135.44840 4161 ft 210 kts 225°
2026-05-06 20:07 48.70747 135.43314 3828 ft 209 kts 225°
2026-05-06 20:07 48.69698 135.41798 3519 ft 208 kts 225°
2026-05-06 20:08 48.68653 135.40288 3216 ft 206 kts 225°
2026-05-06 20:08 48.67631 135.38860 3040 ft 199 kts 223°
2026-05-06 20:08 48.66607 135.37452 2877 ft 198 kts 223°
2026-05-06 20:08 48.65599 135.36071 2731 ft 194 kts 223°
2026-05-06 20:09 48.64599 135.34702 2560 ft 193 kts 223°
2026-05-06 20:09 48.63607 135.33345 2402 ft 192 kts 223°
2026-05-06 20:09 48.62616 135.31988 2235 ft 192 kts 223°
2026-05-06 20:09 48.61622 135.30625 2012 ft 193 kts 223°
2026-05-06 20:10 48.60648 135.29290 1796 ft 183 kts 224°
2026-05-06 20:10 48.59743 135.28053 1573 ft 173 kts 224°
2026-05-06 20:10 48.58872 135.26860 1380 ft 166 kts 224°
2026-05-06 20:10 48.58022 135.25697 1214 ft 159 kts 224°
2026-05-06 20:11 48.57234 135.24621 1046 ft 151 kts 224°
2026-05-06 20:11 48.56467 135.23573 854 ft 148 kts 224°
2026-05-06 20:11 48.55697 135.22520 687 ft 149 kts 224°
2026-05-06 20:11 48.54930 135.21463 512 ft 150 kts 223°
2026-05-06 20:12 48.54148 135.20400 323 ft 152 kts 223°
2026-05-06 20:12 48.53381 135.19355 235 ft 140 kts 223°
2026-05-06 20:12 48.52776 135.18528 238 ft 97 kts 222°
2026-05-06 20:12 48.52388 135.17997 234 ft 52 kts 221°
2026-05-06 20:13 48.52286 135.17820 235 ft 19 kts 268°
2026-05-06 20:13 48.52368 135.17652 235 ft 8 kts 312°
2026-05-06 20:13 48.52371 135.17647 234 ft 3 kts 312°
2026-05-06 20:13 48.52421 135.17564 237 ft 15 kts 311°
2026-05-06 20:14 48.52497 135.17438 236 ft 18 kts 315°
2026-05-06 20:14 48.52572 135.17338 235 ft 15 kts 312°
2026-05-06 20:14 48.52591 135.17308 234 ft 0 kts 312°